User: anonymous   Login
Location: Unspecified
(0.0000°N, 0.0000°E)
Time: 21:55:44
(UTC+00:00)
Language:

STARLINK-11690 [DTC] - Orbit

View from above orbital plane
View from above orbital plane
View from above satellite
View from above satellite

Ground track
Ground track

The orbit is defined by the following mean orbital elements,

1 64242U          26144.91287831 +.00000000 +00000-0 +16629-2 0 00003
2 64242  42.9980 109.5750 0002885 282.2409  77.8135 15.70989221    04
Epoch (UTC): 24 May 2026 21:54:32
Eccentricity: 0.0002885
inclination: 42.9980°
perigee height: 354 km
apogee height: 358 km
right ascension of ascending node: 109.5750°
argument of perigee: 282.2409°
revolutions per day: 15.70989221
mean anomaly at epoch: 77.8135°

The dashed part of the orbit path shows where the satellite is in the earth's shadow,  

DLR